| time (UTC) | temp F | wind direction | speed MPH | gust MPH | rain 1hr in | rain 24hr in | rain mn in | humidity % | barometer mb |
| 20260505164041 | 84 | 0.0 | 0.0 | 0.00 | 0.00 | 0.00 | 18 | 1007.8 | |
| 20260505162442 | 84 | 0.0 | 0.0 | 0.00 | 0.00 | 0.00 | 18 | 1007.9 | |
| 20260505160843 | 81 | 0.0 | 0.0 | 0.00 | 0.00 | 0.00 | 18 | 1009.1 | |
| 20260505152049 | 84 | 0.0 | 0.0 | 0.00 | 0.00 | 0.00 | 15 | 1008.5 | |
| 20260505150451 | 84 | 0.0 | 0.0 | 0.00 | 0.00 | 0.00 | 15 | 1008.5 | |
| 20260505124110 | 83 | 0.0 | 0.0 | 0.00 | 0.00 | 0.00 | 19 | 1009.3 | |
| 20260505122512 | 82 | 0.0 | 0.0 | 0.00 | 0.00 | 0.00 | 22 | 1009.4 | |
| 20260505120912 | 80 | 0.0 | 0.0 | 0.00 | 0.00 | 0.00 | 22 | 1010.1 | |
| 20260505115315 | 79 | 0.0 | 0.0 | 0.00 | 0.00 | 0.00 | 22 | 1010.3 | |
| 20260505113716 | 80 | 0.0 | 0.0 | 0.00 | 0.00 | 0.00 | 22 | 1010.2 | |
| 20260505112213 | 79 | 0.0 | 0.0 | 0.00 | 0.00 | 0.00 | 21 | 1010.8 | |
| 20260505112120 | 79 | 0.0 | 0.0 | 0.00 | 0.00 | 0.00 | 21 | 1010.8 | |
| 20260505110521 | 82 | 0.0 | 0.0 | 0.00 | 0.00 | 0.00 | 19 | 1010.1 | |
| 20260505102135 | 80 | 0.0 | 0.0 | 0.00 | 0.00 | 0.00 | 26 | 1009.8 | |
| 20260505101727 | 80 | 0.0 | 0.0 | 0.00 | 0.00 | 0.00 | 26 | 1009.8 | |
| 20260505100130 | 79 | 0.0 | 0.0 | 0.00 | 0.00 | 0.00 | 27 | 1010.3 | |
| 20260505094532 | 79 | 0.0 | 0.0 | 0.00 | 0.00 | 0.00 | 28 | 1010.4 | |
| 20260505093215 | 77 | 0.0 | 0.0 | 0.00 | 0.00 | 0.00 | 29 | 1010.9 | |
| 20260505092934 | 77 | 0.0 | 0.0 | 0.00 | 0.00 | 0.00 | 29 | 1010.9 | |
| 20260505091338 | 77 | 0.0 | 0.0 | 0.00 | 0.00 | 0.00 | 30 | 1010.9 | |
| 20260505085737 | 75 | 0.0 | 0.0 | 0.00 | 0.00 | 0.00 | 31 | 1011.5 | |
| 20260505084140 | 76 | 0.0 | 0.0 | 0.00 | 0.00 | 0.00 | 31 | 1011.7 | |
| 20260505082544 | 74 | 0.0 | 0.0 | 0.00 | 0.00 | 0.00 | 31 | 1012.1 | |
| 20260505080944 | 74 | 0.0 | 0.0 | 0.00 | 0.00 | 0.00 | 31 | 1012.0 | |
| 20260505075345 | 74 | 0.0 | 0.0 | 0.00 | 0.00 | 0.00 | 32 | 1012.3 | |
| 20260505073747 | 72 | 0.0 | 0.0 | 0.00 | 0.00 | 0.00 | 33 | 1013.0 | |
| 20260505072149 | 73 | 0.0 | 0.0 | 0.00 | 0.00 | 0.00 | 33 | 1012.7 | |
| 20260505070552 | 71 | 0.0 | 0.0 | 0.00 | 0.00 | 0.00 | 35 | 1013.3 | |
| 20260505064953 | 71 | 0.0 | 0.0 | 0.00 | 0.00 | 0.00 | 36 | 1013.3 | |
| 20260505063355 | 69 | 0.0 | 0.0 | 0.00 | 0.00 | 0.00 | 37 | 1013.7 | |
| 20260505061757 | 68 | 0.0 | 0.0 | 0.00 | 0.00 | 0.00 | 41 | 1013.8 | |
| 20260505060200 | 66 | 0.0 | 0.0 | 0.00 | 0.00 | 0.00 | 42 | 1014.2 | |
| 20260505054601 | 65 | 0.0 | 0.0 | 0.00 | 0.00 | 0.00 | 43 | 1014.6 | |
| 20260505053003 | 64 | 0.0 | 0.0 | 0.00 | 0.00 | 0.00 | 45 | 1014.7 | |
| 20260505051407 | 62 | 0.0 | 0.0 | 0.00 | 0.00 | 0.00 | 46 | 1015.3 | |
| 20260505041013 | 60 | 0.0 | 0.0 | 0.00 | 0.00 | 0.00 | 45 | 1016.3 | |
| 20260505035415 | 62 | 0.0 | 0.0 | 0.00 | 0.00 | 0.00 | 43 | 1016.1 | |
| 20260505033817 | 59 | 0.0 | 0.0 | 0.00 | 0.00 | 0.00 | 47 | 1016.5 | |
| 20260505032220 | 60 | 0.0 | 0.0 | 0.00 | 0.00 | 0.00 | 46 | 1016.5 | |
| 20260505030622 | 60 | 0.0 | 0.0 | 0.00 | 0.00 | 0.00 | 46 | 1016.6 | |
| 20260505025023 | 60 | 0.0 | 0.0 | 0.00 | 0.00 | 0.00 | 46 | 1016.7 | |
| 20260505023425 | 59 | 0.0 | 0.0 | 0.00 | 0.00 | 0.00 | 48 | 1017.0 | |
| 20260505021827 | 59 | 0.0 | 0.0 | 0.00 | 0.00 | 0.00 | 48 | 1017.0 | |
| 20260505020230 | 62 | 0.0 | 0.0 | 0.00 | 0.00 | 0.00 | 44 | 1016.9 | |
| 20260505014631 | 64 | 0.0 | 0.0 | 0.00 | 0.00 | 0.00 | 38 | 1016.7 | |
| 20260505013033 | 65 | 0.0 | 0.0 | 0.00 | 0.00 | 0.00 | 37 | 1016.6 | |
| 20260505011435 | 66 | 0.0 | 0.0 | 0.00 | 0.00 | 0.00 | 36 | 1016.5 | |
| 20260505005837 | 66 | 0.0 | 0.0 | 0.00 | 0.00 | 0.00 | 36 | 1016.6 | |
| 20260505004240 | 65 | 0.0 | 0.0 | 0.00 | 0.00 | 0.00 | 36 | 1016.8 | |
| 20260505002642 | 66 | 0.0 | 0.0 | 0.00 | 0.00 | 0.00 | 36 | 1016.9 | |
| 20260505001043 | 65 | 0.0 | 0.0 | 0.00 | 0.00 | 0.00 | 37 | 1017.1 | |
| 20260504235445 | 64 | 0.0 | 0.0 | 0.00 | 0.00 | 0.00 | 38 | 1017.5 | |
| 20260504233847 | 66 | 0.0 | 0.0 | 0.00 | 0.00 | 0.00 | 37 | 1017.2 | |
| 20260504232249 | 67 | 0.0 | 0.0 | 0.00 | 0.00 | 0.00 | 37 | 1017.0 | |
| 20260504230651 | 67 | 0.0 | 0.0 | 0.00 | 0.00 | 0.00 | 36 | 1017.2 | |
| 20260504225053 | 66 | 0.0 | 0.0 | 0.00 | 0.00 | 0.00 | 36 | 1017.5 | |
| 20260504223455 | 67 | 0.0 | 0.0 | 0.00 | 0.00 | 0.00 | 36 | 1017.3 | |
| 20260504221857 | 67 | 0.0 | 0.0 | 0.00 | 0.00 | 0.00 | 36 | 1017.4 | |
| 20260504220259 | 68 | 0.0 | 0.0 | 0.00 | 0.00 | 0.00 | 36 | 1017.3 | |
| 20260504214701 | 68 | 0.0 | 0.0 | 0.00 | 0.00 | 0.00 | 36 | 1017.2 | |
| 20260504213103 | 68 | 0.0 | 0.0 | 0.00 | 0.00 | 0.00 | 35 | 1017.2 | |
| 20260504211505 | 69 | 0.0 | 0.0 | 0.00 | 0.00 | 0.00 | 34 | 1017.1 | |
| 20260504205907 | 70 | 0.0 | 0.0 | 0.00 | 0.00 | 0.00 | 34 | 1016.9 | |
| 20260504204309 | 70 | 0.0 | 0.0 | 0.00 | 0.00 | 0.00 | 35 | 1016.7 | |
| 20260504202711 | 70 | 0.0 | 0.0 | 0.00 | 0.00 | 0.00 | 36 | 1016.5 | |
| 20260504201113 | 71 | 0.0 | 0.0 | 0.00 | 0.00 | 0.00 | 38 | 1015.9 | |
| 20260504195516 | 72 | 0.0 | 0.0 | 0.00 | 0.00 | 0.00 | 38 | 1015.7 | |
| 20260504193917 | 72 | 0.0 | 0.0 | 0.00 | 0.00 | 0.00 | 38 | 1015.6 | |
| 20260504192318 | 72 | 0.0 | 0.0 | 0.00 | 0.00 | 0.00 | 38 | 1015.5 | |
| 20260504190721 | 73 | 0.0 | 0.0 | 0.00 | 0.00 | 0.00 | 38 | 1015.1 | |
| 20260504185123 | 74 | 0.0 | 0.0 | 0.00 | 0.00 | 0.00 | 38 | 1014.9 | |
| 20260504183525 | 74 | 0.0 | 0.0 | 0.00 | 0.00 | 0.00 | 37 | 1014.8 | |
| 20260504181927 | 74 | 0.0 | 0.0 | 0.00 | 0.00 | 0.00 | 36 | 1014.6 | |
| 20260504180328 | 75 | 0.0 | 0.0 | 0.00 | 0.00 | 0.00 | 36 | 1014.4 | |
| 20260504174731 | 75 | 0.0 | 0.0 | 0.00 | 0.00 | 0.00 | 37 | 1014.3 | |
| 20260504173132 | 76 | 0.0 | 0.0 | 0.00 | 0.00 | 0.00 | 35 | 1014.1 | |
| 20260504171535 | 79 | 0.0 | 0.0 | 0.00 | 0.00 | 0.00 | 32 | 1013.6 |